Location: McFarlands Corners
(41.4117°N, 81.3382°W)
Time: 18:21:44
(UTC+00:00)

Vanguard 1 Rocket - Pass Details

Date: 16 February 2026
Orbit: 653 x 4214 km, 34.3° (Epoch: 8 March)

Event Time Altitude Azimuth Distance (km) Brightness Sun altitude
Rises 16:26:30 0° 185° (S) 3,806 11.4 33.8°
Reaches altitude 10° 16:30:06 10° 163° (SSE) 3,290 11.7 34.1°
Maximum altitude 16:34:50 16° 128° (SE) 3,438 11.4 34.4°
Drops below altitude 10° 16:41:15 10° 96° (E) 4,715 11.4 34.8°
Sets 16:48:20 0° 79° (E) 6,550 11.8 35.2°
